This demonstration page uses our WeatherBlox Daily Observations layout. Learn more.

38.80484, -77.04692

Hourly Observations for April 27, 2019

Temp ( °F °C ) Dew Point ( °F °C ) Humidity (%) Winds ( mph kmh ) Pressure ( in mb ) Visibility ( mi km ) Precip ( " mm )
12:52 am 00:52 Cloudy 58 14.4 41 5 53 53 W 13 20 29.65 1004 10 16.0934 0 0
1:52 am 01:52 Cloudy 57 13.9 42 5.6 58 58 W 14 22 29.66 1004 10 16.0934 0 0
2:52 am 02:52 Cloudy 56 13.3 43 6.1 62 62 W 10 17 29.67 1005 10 16.0934 0 0
3:52 am 03:52 Partly Cloudy 56 13.3 42 5.6 60 60 W 12 19 29.67 1005 10 16.0934 0 0
4:52 am 04:52 Mostly Clear 55 12.8 40 4.4 57 57 WSW 10 17 29.7 1006 10 16.0934 0 0
5:52 am 05:52 Mostly Clear 55 12.8 36 2.2 49 49 W 16 26 29.71 1006 10 16.0934 0 0
6:52 am 06:52 Mostly Sunny 55 12.8 33 0.6 44 44 W 16 26 29.75 1007 10 16.0934 0 0
7:52 am 07:52 Mostly Sunny 56 13.3 33 0.6 42 42 W 13 20 29.77 1008 10 16.0934 0 0
8:52 am 08:52 Sunny 59 15 30 -1.1 33 33 WNW 16 26 29.77 1008 10 16.0934 0 0
9:52 am 09:52 Mostly Sunny 62 16.7 30 -1.1 30 30 WNW 16 26 29.78 1008 10 16.0934 0 0
10:52 am 10:52 Mostly Sunny 63 17.2 28 -2.2 27 27 WNW 30 48 29.76 1008 10 16.0934 0 0
11:52 am 11:52 Mostly Sunny 66 18.9 27 -2.8 23 23 W 23 37 29.76 1008 10 16.0934 0 0
12:52 pm 12:52 Mostly Sunny 67 19.4 26 -3.3 21 21 WNW 24 39 29.75 1007 10 16.0934 0 0
1:52 pm 13:52 Mostly Sunny 70 21.1 27 -2.8 20 20 WNW 20 31 29.75 1007 10 16.0934 0 0
2:52 pm 14:52 Mostly Sunny 71 21.7 26 -3.3 19 19 NW 17 28 29.75 1007 10 16.0934 0 0
3:52 pm 15:52 Mostly Sunny 71 21.7 25 -3.9 18 18 WNW 21 33 29.75 1008 10 16.0934 0 0
4:52 pm 16:52 Partly Cloudy 71 21.7 25 -3.9 18 18 WNW 17 28 29.76 1008 10 16.0934 0 0
5:52 pm 17:52 Partly Cloudy 72 22.2 25 -3.9 17 17 WNW 16 26 29.78 1008 10 16.0934 0 0
6:52 pm 18:52 Partly Cloudy 70 21.1 26 -3.3 19 19 NNW 15 24 29.81 1009 10 16.0934 0 0
7:52 pm 19:52 Mostly Cloudy 68 20 23 -5 18 18 NW 10 17 29.83 1010 10 16.0934 0 0
8:52 pm 20:52 Cloudy 67 19.4 25 -3.9 20 20 NNW 6 9 29.85 1011 10 16.0934 0 0
9:52 pm 21:52 Cloudy 65 18.3 26 -3.3 23 23 NNW 8 13 29.87 1011 10 16.0934 0 0
10:52 pm 22:52 Cloudy 65 18.3 27 -2.8 24 24 N 10 17 29.87 1012 10 16.0934 0 0
11:52 pm 23:52 Cloudy with Light Rain 63 17.2 37 2.8 38 38 NW 17 28 29.94 1014 10 16.0934 0 0.0254

Powered by AerisWeather